SR9NCI Weather Reports


time (UTC)temp
C
wind
direction
speed
KPH
gust
KPH
rain 1hr
cm
rain 24hr
cm
rain mn
cm
humidity
%
barometer
mb
20260504021903 16 137 14.5 20.9 0.00 0.00 0.00
20260504021500 16 130 11.3 16.1 0.00 0.00 0.00
20260504021059 16 135 11.3 16.1 0.00 0.00 0.00
20260504020658 16 148 16.1 29.0 0.00 0.00 0.00
20260504020256 16 137 11.3 17.7 0.00 0.00 0.00
20260504015854 16 137 14.5 22.5 0.00 0.00 0.00
20260504015452 16 137 12.9 19.3 0.00 0.00 0.00
20260504015051 16 138 11.3 16.1 0.00 0.00 0.00
20260504014650 16 138 9.7 16.1 0.00 0.00 0.00
20260504014247 16 131 14.5 20.9 0.00 0.00 0.00
20260504013839 16 136 11.3 14.5 0.00 0.00 0.00
20260504013437 16 138 14.5 19.3 0.00 0.00 0.00
20260504013036 16 138 14.5 19.3 0.00 0.00 0.00
20260504012634 16 135 12.9 19.3 0.00 0.00 0.00
20260504012233 16 137 12.9 19.3 0.00 0.00 0.00
20260504011832 16 129 11.3 19.3 0.00 0.00 0.00
20260504011430 16 133 12.9 25.7 0.00 0.00 0.00
20260504011029 16 143 9.7 16.1 0.00 0.00 0.00
20260504010627 16 144 6.4 9.7 0.00 0.00 0.00
20260504010225 16 153 9.7 14.5 0.00 0.00 0.00
20260504005817 16 152 11.3 17.7 0.00 0.00 0.00
20260504005415 16 152 8.0 12.9 0.00 0.00 0.00
20260504005013 16 147 8.0 14.5 0.00 0.00 0.00
20260504004612 16 157 6.4 12.9 0.00 0.00 0.00
20260504004210 16 156 8.0 11.3 0.00 0.00 0.00
20260504003809 16 145 8.0 12.9 0.00 0.00 0.00
20260504003406 16 154 9.7 14.5 0.00 0.00 0.00
20260504003005 16 141 6.4 14.5 0.00 0.00 0.00
20260504002604 16 134 8.0 14.5 0.00 0.00 0.00
20260504002202 16 140 8.0 16.1 0.00 0.00 0.00
20260504001753 16 151 9.7 17.7 0.00 0.00 0.00
20260504001351 16 139 8.0 12.9 0.00 0.00 0.00
20260504000950 16 141 8.0 14.5 0.00 0.00 0.00
20260504000549 16 148 11.3 17.7 0.00 0.00 0.00
20260504000148 16 135 9.7 16.1 0.00 0.00 0.00
20260503235344 16 146 12.9 19.3 0.00 0.00 0.00
20260503235211 16 145 12.9 20.9 0.00 0.00 0.00
20260503234943 16 144 12.9 19.3 0.00 0.00 0.00
20260503234542 16 145 12.9 20.9 0.00 0.00 0.00
20260503234139 16 146 12.9 17.7 0.00 0.00 0.00
20260503233731 16 143 12.9 17.7 0.00 0.00 0.00
20260503233329 16 150 12.9 20.9 0.00 0.00 0.00
20260503232928 16 151 14.5 25.7 0.00 0.00 0.00
20260503232526 16 155 11.3 16.1 0.00 0.00 0.00
20260503232124 16 146 11.3 16.1 0.00 0.00 0.00
20260503231723 16 150 14.5 17.7 0.00 0.00 0.00
20260503231321 16 150 11.3 19.3 0.00 0.00 0.00
20260503230919 16 144 11.3 14.5 0.00 0.00 0.00
20260503230518 16 135 9.7 17.7 0.00 0.00 0.00
20260503230116 16 153 11.3 16.1 0.00 0.00 0.00
20260503225708 16 138 9.7 16.1 0.00 0.00 0.00
20260503225306 16 141 9.7 12.9 0.00 0.00 0.00
20260503224904 16 145 9.7 14.5 0.00 0.00 0.00
20260503224503 16 150 11.3 16.1 0.00 0.00 0.00
20260503224101 16 157 11.3 16.1 0.00 0.00 0.00
20260503223700 16 153 11.3 17.7 0.00 0.00 0.00
20260503223257 17 153 11.3 17.7 0.00 0.00 0.00
20260503222856 17 144 11.3 19.3 0.00 0.00 0.00
20260503222455 17 151 9.7 16.1 0.00 0.00 0.00
20260503222053 17 151 9.7 12.9 0.00 0.00 0.00
20260503221644 17 151 11.3 17.7 0.00 0.00 0.00
20260503221242 17 146 8.0 14.5 0.00 0.00 0.00
20260503220841 17 151 11.3 16.1 0.00 0.00 0.00
20260503220540 16 148 8.0 14.5 0.00 0.00 0.00
20260503220440 16 148 8.0 14.5 0.00 0.00 0.00
20260503220036 17 136 9.7 14.5 0.00 0.00 0.00
20260503215638 16 157 8.0 11.3 0.00 0.00 0.00
20260503215635 17 145 9.7 16.1 0.00 0.00 0.00
20260503215233 16 157 8.0 11.3 0.00 0.00 0.00
20260503214832 17 168 9.7 12.9 0.00 0.00 0.00
20260503214431 17 151 6.4 11.3 0.00 0.00 0.00
20260503214027 17 157 6.4 8.0 0.00 0.00 0.00
20260503213620 17 157 6.4 12.9 0.00 0.00 0.00
20260503213218 17 158 6.4 9.7 0.00 0.00 0.00
20260503212817 17 176 6.4 11.3 0.00 0.00 0.00
20260503212013 17 157 4.8 8.0 0.00 0.00 0.00
20260503211612 17 157 6.4 9.7 0.00 0.00 0.00
20260503211210 17 157 6.4 14.5 0.00 0.00 0.00
20260503210808 17 178 6.4 8.0 0.00 0.00 0.00
20260503210407 17 170 11.3 14.5 0.00 0.00 0.00
20260503210006 17 154 6.4 11.3 0.00 0.00 0.00
20260503205557 17 135 6.4 11.3 0.00 0.00 0.00
20260503205154 17 135 6.4 9.7 0.00 0.00 0.00
20260503204753 17 127 8.0 9.7 0.00 0.00 0.00
20260503204352 17 135 6.4 11.3 0.00 0.00 0.00
20260503203950 17 135 6.4 9.7 0.00 0.00 0.00
20260503203549 17 135 6.4 9.7 0.00 0.00 0.00
20260503203146 17 141 6.4 11.3 0.00 0.00 0.00
20260503202745 17 137 4.8 11.3 0.00 0.00 0.00
20260503202345 17 145 8.0 12.9 0.00 0.00 0.00
20260503201943 17 147 6.4 9.7 0.00 0.00 0.00
20260503201533 17 141 6.4 14.5 0.00 0.00 0.00
20260503201132 18 147 8.0 12.9 0.00 0.00 0.00
20260503200731 18 140 8.0 11.3 0.00 0.00 0.00
20260503200330 18 154 6.4 11.3 0.00 0.00 0.00
20260503195927 18 157 8.0 12.9 0.00 0.00 0.00
20260503195526 18 150 8.0 12.9 0.00 0.00 0.00
20260503195124 18 156 9.7 14.5 0.00 0.00 0.00
20260503194723 18 157 9.7 14.5 0.00 0.00 0.00
20260503194321 18 157 8.0 12.9 0.00 0.00 0.00
20260503193919 19 156 8.0 14.5 0.00 0.00 0.00
20260503193511 19 165 9.7 12.9 0.00 0.00 0.00
20260503193109 20 161 9.7 16.1 0.00 0.00 0.00
20260503192708 20 165 8.0 11.3 0.00 0.00 0.00
20260503192306 20 174 11.3 16.1 0.00 0.00 0.00
20260503191904 20 191 9.7 12.9 0.00 0.00 0.00
20260503191503 20 172 11.3 16.1 0.00 0.00 0.00
20260503191101 20 191 9.7 14.5 0.00 0.00 0.00
20260503190659 20 186 9.7 16.1 0.00 0.00 0.00
20260503190258 20 202 8.0 11.3 0.00 0.00 0.00
20260503185856 20 192 11.3 14.5 0.00 0.00 0.00
20260503185448 21 192 11.3 16.1 0.00 0.00 0.00
20260503185045 21 182 11.3 17.7 0.00 0.00 0.00
20260503184644 21 187 12.9 17.7 0.00 0.00 0.00
20260503184243 21 198 14.5 20.9 0.00 0.00 0.00
20260503183842 21 194 14.5 19.3 0.00 0.00 0.00
20260503183439 21 191 12.9 16.1 0.00 0.00 0.00
20260503183038 21 193 11.3 16.1 0.00 0.00 0.00
20260503182637 21 189 11.3 16.1 0.00 0.00 0.00
20260503182236 21 185 11.3 14.5 0.00 0.00 0.00
20260503181834 21 191 12.9 16.1 0.00 0.00 0.00
20260503181425 21 180 9.7 14.5 0.00 0.00 0.00
20260503181023 22 192 11.3 14.5 0.00 0.00 0.00
20260503180622 22 187 11.3 16.1 0.00 0.00 0.00
20260503180221 22 180 6.4 11.3 0.00 0.00 0.00
20260503175818 22 193 12.9 19.3 0.00 0.00 0.00
20260503175416 22 180 11.3 16.1 0.00 0.00 0.00
20260503175015 22 182 11.3 16.1 0.00 0.00 0.00
20260503174614 22 192 12.9 22.5 0.00 0.00 0.00
20260503174211 22 183 12.9 17.7 0.00 0.00 0.00
20260503173810 23 178 14.5 16.1 0.00 0.00 0.00
20260503173402 23 181 14.5 19.3 0.00 0.00 0.00
20260503173000 23 171 8.0 12.9 0.00 0.00 0.00
20260503172558 23 172 12.9 17.7 0.00 0.00 0.00
20260503172157 23 172 12.9 20.9 0.00 0.00 0.00
20260503171755 23 183 14.5 19.3 0.00 0.00 0.00
20260503171354 23 170 14.5 20.9 0.00 0.00 0.00
20260503170952 24 169 11.3 16.1 0.00 0.00 0.00
20260503170550 24 182 12.9 22.5 0.00 0.00 0.00
20260503170149 24 171 12.9 16.1 0.00 0.00 0.00
20260503160112 26 198 16.1 22.5 0.00 0.00 0.00
20260503150841 27 225 8.0 17.7 0.00 0.00 0.00
20260503150440 26 225 3.2 6.4 0.00 0.00 0.00
20260503131134 26 196 4.8 11.3 0.00 0.00 0.00
20260503130731 26 188 6.4 11.3 0.00 0.00 0.00
20260503130330 26 201 11.3 19.3 0.00 0.00 0.00
20260503110620 24 199 4.8 8.0 0.00 0.00 0.00
20260503110220 25 201 11.3 16.1 0.00 0.00 0.00
20260503100142 23 164 6.4 16.1 0.00 0.00 0.00
20260503090511 22 136 14.5 22.5 0.00 0.00 0.00
20260503090110 22 108 12.9 17.7 0.00 0.00 0.00
20260503081243 21 123 14.5 19.3 0.00 0.00 0.00
20260503080835 20 131 16.1 22.5 0.00 0.00 0.00
20260503080433 20 135 17.7 25.7 0.00 0.00 0.00
20260503072811 20 146 12.9 20.9 0.00 0.00 0.00
20260503072408 20 136 17.7 22.5 0.00 0.00 0.00
20260503072007 20 139 19.3 30.6 0.00 0.00 0.00
20260503071606 20 138 12.9 20.9 0.00 0.00 0.00
20260503071204 20 143 16.1 22.5 0.00 0.00 0.00
20260503070802 21 131 16.1 29.0 0.00 0.00 0.00
20260503070400 22 149 17.7 25.7 0.00 0.00 0.00
20260503060323 18 140 16.1 27.4 0.00 0.00 0.00
20260503055118 18 127 16.1 24.1 0.00 0.00 0.00
20260503054717 18 129 16.1 19.3 0.00 0.00 0.00
20260503054315 18 138 12.9 22.5 0.00 0.00 0.00
20260503053913 18 132 12.9 19.3 0.00 0.00 0.00
20260503053512 18 148 12.9 17.7 0.00 0.00 0.00
20260503053110 17 150 14.5 20.9 0.00 0.00 0.00
20260503052702 17 136 14.5 22.5 0.00 0.00 0.00
20260503052259 17 136 11.3 16.1 0.00 0.00 0.00
20260503051858 17 149 11.3 19.3 0.00 0.00 0.00
20260503051457 17 140 11.3 17.7 0.00 0.00 0.00
20260503051056 17 141 11.3 20.9 0.00 0.00 0.00
20260503050653 17 142 14.5 20.9 0.00 0.00 0.00
20260503050252 17 138 12.9 16.1 0.00 0.00 0.00
20260503045851 17 145 11.3 16.1 0.00 0.00 0.00
20260503045450 17 144 11.3 16.1 0.00 0.00 0.00
20260503045047 16 145 11.3 17.7 0.00 0.00 0.00
20260503044639 16 132 11.3 19.3 0.00 0.00 0.00
20260503044237 16 131 11.3 16.1 0.00 0.00 0.00
20260503043836 16 143 12.9 16.1 0.00 0.00 0.00
20260503043435 16 138 12.9 22.5 0.00 0.00 0.00
20260503043032 16 140 11.3 17.7 0.00 0.00 0.00
20260503042631 15 151 11.3 14.5 0.00 0.00 0.00
20260503042229 16 145 11.3 16.1 0.00 0.00 0.00
20260503041828 15 139 8.0 14.5 0.00 0.00 0.00
20260503041426 15 127 12.9 20.9 0.00 0.00 0.00
20260503041024 15 146 8.0 12.9 0.00 0.00 0.00
20260503040616 15 142 9.7 17.7 0.00 0.00 0.00
20260503040214 15 136 9.7 16.1 0.00 0.00 0.00
20260503035812 15 121 8.0 12.9 0.00 0.00 0.00
20260503035411 15 129 9.7 16.1 0.00 0.00 0.00
20260503035009 14 133 11.3 16.1 0.00 0.00 0.00
20260503034608 14 135 8.0 14.5 0.00 0.00 0.00
20260503034205 14 153 9.7 16.1 0.00 0.00 0.00
20260503033804 13 129 9.7 16.1 0.00 0.00 0.00
20260503033403 14 140 8.0 16.1 0.00 0.00 0.00
20260503033001 14 131 9.7 16.1 0.00 0.00 0.00
20260503032553 14 138 9.7 12.9 0.00 0.00 0.00
20260503032150 13 124 9.7 14.5 0.00 0.00 0.00
20260503031749 14 129 9.7 16.1 0.00 0.00 0.00
20260503031348 13 125 9.7 14.5 0.00 0.00 0.00
20260503030947 13 121 8.0 12.9 0.00 0.00 0.00
20260503030545 14 126 9.7 12.9 0.00 0.00 0.00
20260503030143 13 123 11.3 16.1 0.00 0.00 0.00
20260503025742 13 136 9.7 14.5 0.00 0.00 0.00
20260503025341 13 135 11.3 14.5 0.00 0.00 0.00
20260503024938 13 153 9.7 12.9 0.00 0.00 0.00
20260503024530 13 156 9.7 12.9 0.00 0.00 0.00
20260503024128 13 142 8.0 11.3 0.00 0.00 0.00
20260503023727 13 154 8.0 9.7 0.00 0.00 0.00
20260503023325 13 131 8.0 12.9 0.00 0.00 0.00
20260503022923 13 141 8.0 11.3 0.00 0.00 0.00
20260503022522 13 141 9.7 14.5 0.00 0.00 0.00
20260503022120 13 146 11.3 14.5 0.00 0.00 0.00